Voltar ao catálogo

CZ-6A DEB

AtivoSSO
NORAD 55001·DEBRIS·🇨🇳 China

Lançado Nov 11, 2022 de Taiyuan Satellite Launch Center

Loading…

Próximas Passagens (próximas 24 horas)

TLE

AtualizadoSource: Space-Track

Época: Sep 14, 2026, 10:09 UTC

1 55001U 22151UR  26257.42314161  .00000170  00000-0  11853-3 0  9995
2 55001  98.8416 255.7034 0044844  88.6887 271.9421 14.10454559196374

Acompanhe CZ-6A DEB em tempo real com AllMySat

Download on the App Store